Вернуться в каталог

COSMOS 2251 DEB

АктивенLEO
NORAD 33805·DEBRIS·🇷🇺 Russia

Запущен Jun 16, 1993 с Plesetsk Cosmodrome

Loading…

Ближайшие Пролёты (ближайшие 24 часа)

TLE

СвежийSource: Space-Track

Эпоха: Sep 14, 2026, 09:58 UTC

1 33805U 93036AW  26257.41539771  .00000526  00000-0  11730-3 0  9997
2 33805  74.0308 146.6340 0061833 264.8665  94.5440 14.58413796932452

Отслеживайте COSMOS 2251 DEB в реальном времени с AllMySat

Download on the App Store